Home > Weather > Hollabrunn > Past weeks

Flag for Austria Weather for the Past 2 Weeks in Hollabrunn, Lower Austria, Austria

Now
52 °F

Cool.


Feels Like: 51 °F
Forecast: 48 / 62 °F
Wind: 5 mph from North

Location: Retz

Current Time: May 3, 2016 at 1:59:49 AM

Latest Report: May 3, 2016 at 1:00 AM


Visibility: N/A

Pressure: 30.04 "Hg

Humidity: 68%

Dew Point: 42 °F

Location of HollabrunnLocation

Historic Weather in Hollabrunn — Graph

°F

Hollabrunn Temperature Yesterday

Maximum temperature yesterday: 66 °F (at 2:00 PM)
Minimum temperature yesterday: 51 °F (at 8:00 AM)
Average temperature yesterday: 58 °F

High & Low Weather Summary for the Past Weeks

 TemperatureHumidityPressure
High66 °F (May 2, 2:00 PM)95% (Apr 27, 3:00 AM)30.38 "Hg (Apr 27, 3:00 AM)
Low33 °F (Apr 26, 6:00 AM)27% (Apr 30, 5:00 PM)29.60 "Hg (Apr 26, 6:00 PM)
Average51 °F57%29.98 "Hg
* Reported Apr 17 10:00 PM — May 2 10:00 PM, Hollabrunn, Weather by CustomWeather, © 2016

Note: Actual official high and low records may vary slightly from our data, if they occured in-between our weather recording intervals... More about our weather records

Advertising

Hollabrunn Weather History for the Previous 24 Hours

Scroll right to see more
 ConditionsComfort  
Time TempWeatherWind HumidityBarometerVisibility
10:00 PM
Mon, May 2
55 °FCool.5 mph62%30.06 "HgN/A
9:00 PM57 °FRefreshingly cool.5 mph58%30.04 "HgN/A
8:00 PM59 °FPartly sunny.5 mph59%30.03 "Hg11 mi
7:00 PM59 °FRefreshingly cool.6 mph59%30.03 "HgN/A
6:00 PM61 °FRefreshingly cool.8 mph55%30.02 "HgN/A
5:00 PM64 °FMild.9 mph47%30.02 "HgN/A
4:00 PM64 °FMild.8 mph48%30.02 "HgN/A
3:00 PM66 °FMild.8 mph45%30.02 "HgN/A
2:00 PM66 °FPartly sunny.8 mph47%30.03 "Hg14 mi
1:00 PM64 °FMild.8 mph49%30.05 "HgN/A
12:00 PM63 °FMild.8 mph52%30.07 "HgN/A
10:00 AM58 °FRefreshingly cool.6 mph60%30.09 "HgN/A
9:00 AM54 °FCool.5 mph66%30.11 "HgN/A
8:00 AM51 °FOvercast.2 mph70%30.11 "Hg11 mi
3:00 AM52 °FCool.8 mph63%30.08 "HgN/A
2:00 AM52 °FCool.8 mph61%30.08 "HgN/A
1:00 AM53 °FCool.8 mph58%30.08 "HgN/A
Weather by CustomWeather, © 2016

See weather overviewHow to use our weather pages